Station GTRM4 - Superior Grand Traverse Bay, MI Image indicating link to RSS feed of recent meteorological observations for station GTRM4


Conditions at GTRM4 as of
(4:00 pm EDT)
2000 GMT on 07/14/2024:
     

Click on the graph icon in the table below to see a time series plot of the last five days of that observation.

5-day plot - Wind Direction Wind Direction (WDIR): W ( 280 deg true )
5-day plot - Wind Speed Wind Speed (WSPD): 8.9 kts
5-day plot - Wind Gust Wind Gust (GST): 14.0 kts
5-day plot - Atmospheric Pressure Atmospheric Pressure (PRES):29.78 in
5-day plot - Pressure Tendency Pressure Tendency (PTDY):-0.03 in ( Falling )
5-day plot - Air Temperature Air Temperature (ATMP): 86.9 °F
5-day plot - Wind Speed at 10 Meters Wind Speed at 10 meters (WSPD10M): 9.7 kts
5-day plot - Wind Speed at 20 Meters Wind Speed at 20 meters (WSPD20M): 9.7 kts
5-day plot -  Wind Speed, Wind Gust and Atmospheric Pressure Combined plot of Wind Speed, Gust, and Air Pressure
Previous observations
TIME
(EDT)
5-day plot - Wind Direction
WDIR
 
5-day plot - Wind Speed
WSPD
kts
5-day plot - Wind Gust
GST
kts
5-day plot - Wave Height
WVHT
ft
5-day plot - Dominant Wave Period
DPD
sec
5-day plot - Average Wave Period
APD
sec
5-day plot - Mean Wave Direction
MWD
 
5-day plot - Atmospheric Pressure
PRES
in
5-day plot - Pressure Tendency
PTDY
in
5-day plot - Air Temperature
ATMP
°F
5-day plot - Water Temperature
WTMP
°F
5-day plot - Dew Point
DEWP
°F
5-day plot - Salinity
SAL
psu
5-day plot - Visibility
VIS
nmi
5-day plot - Tide (above MLLW)
TIDE
ft
2024-07-14 03:50 pmWSW 8.9 12.0----29.78- 85.8-----
2024-07-14 03:40 pmWSW 7.0 13.0----29.78- 87.8-----
2024-07-14 03:30 pmWSW 7.0 14.0----29.78- 86.9-----
2024-07-14 03:20 pmWSW 7.0 13.0----29.78- 87.3-----
2024-07-14 03:10 pm W 8.0 13.0----29.78- 86.5-----
2024-07-14 03:00 pm SW 7.0 14.0----29.78-0.03 86.2-----
2024-07-14 02:50 pmWNW 5.1 11.1----29.78- 86.5-----
2024-07-14 02:40 pm W 5.1 9.9----29.78- 87.3-----
2024-07-14 02:30 pm W 5.1 11.1----29.79- 85.1-----
2024-07-14 02:20 pm W 8.0 13.0----29.79- 84.6-----
2024-07-14 02:10 pm W 7.0 14.0----29.80- 85.8-----
2024-07-14 02:00 pm W 6.0 12.0----29.80-0.01 86.2-----
2024-07-14 01:50 pm W 5.1 9.9----29.80- 87.3-----
2024-07-14 01:40 pm W 5.1 8.9----29.80- 86.7-----
2024-07-14 01:30 pm NW 8.0 15.9----29.80- 84.0-----
2024-07-14 01:20 pm W 5.1 15.9----29.80- 85.5-----
2024-07-14 01:10 pm W 8.0 15.9----29.81- 84.6-----
2024-07-14 01:00 pmWNW 12.0 15.9----29.81+0.00 84.0-----
2024-07-14 12:50 pmNNW 8.0 11.1----29.81- 85.1-----
2024-07-14 12:40 pmNNW 11.1 15.0----29.81- 84.0-----
2024-07-14 12:30 pmNNW 8.0 12.0----29.81- 85.3-----
2024-07-14 12:20 pmWNW 8.9 14.0----29.81- 83.7-----
2024-07-14 12:10 pm W 7.0 15.0----29.81- 84.6-----
2024-07-14 12:00 pmWNW 8.0 12.0----29.81-0.02 83.8-----
2024-07-14 11:50 amWNW 6.0 12.0----29.80- 84.4-----
2024-07-14 11:40 am W 8.0 13.0----29.80- 83.5-----
2024-07-14 11:30 amWNW 8.0 12.0----29.80- 83.8-----
2024-07-14 11:20 am NW 7.0 11.1----29.81- 84.0-----
2024-07-14 11:10 am W 5.1 11.1----29.81- 83.8-----
2024-07-14 11:00 amWNW 5.1 12.0----29.81-0.03 84.4-----
2024-07-14 10:50 am NW 6.0 11.1----29.81- 82.9-----
2024-07-14 10:40 am NW 8.9 11.1----29.81- 82.6-----
2024-07-14 10:30 amWNW 2.9 8.9----29.81- 82.2-----
2024-07-14 10:20 am W 2.9 8.0----29.81- 81.7-----
2024-07-14 10:10 amESE 1.0 2.9----29.81- 73.8-----
2024-07-14 10:00 am E 2.9 2.9----29.81-0.03 71.4-----
2024-07-14 09:50 amESE 1.0 4.1----29.81- 72.1-----
2024-07-14 09:40 am SE 2.9 5.1----29.82- 69.4-----
2024-07-14 09:30 amSSE 4.1 4.1----29.82- 69.8-----
2024-07-14 09:20 amSSE 4.1 4.1----29.82- 70.0-----
2024-07-14 09:10 amSSE 2.9 4.1----29.82- 69.4-----
2024-07-14 09:00 am SE 2.9 2.9----29.83+0.00 68.9-----
2024-07-14 08:50 amESE 2.9 4.1----29.83- 68.2-----
2024-07-14 08:40 amESE 2.9 4.1----29.83- 68.0-----
2024-07-14 08:30 amWNW 1.9 4.1----29.83- 72.7-----
2024-07-14 08:20 am W 1.9 4.1----29.83- 71.8-----
2024-07-14 08:10 am W 1.0 2.9----29.84- 71.2-----
2024-07-14 08:00 am W 1.0 2.9----29.84+0.01 70.5-----
2024-07-14 07:50 am- 0.0 4.1----29.85- 69.6-----
2024-07-14 07:40 am- 0.0 2.9----29.85- 68.4-----
2024-07-14 07:30 amSSW 1.9 4.1----29.85- 66.6-----
2024-07-14 07:20 amSSE 4.1 4.1----29.84- 65.3-----
2024-07-14 07:10 am- 0.0 1.9----29.85- 66.6-----
2024-07-14 07:00 am- 0.0 2.9----29.84+0.02 66.4-----
2024-07-14 06:50 am NW 1.9 5.1----29.84- 66.0-----
2024-07-14 06:40 am NW 2.9 4.1----29.85- 65.8-----
2024-07-14 06:30 am- 0.0 4.1----29.84- 66.9-----
2024-07-14 06:20 amWNW 1.9 5.1----29.84- 66.9-----
2024-07-14 06:10 am W 2.9 7.0----29.84- 67.8-----
2024-07-14 06:00 am W 2.9 6.0----29.83-0.03 67.6-----
2024-07-14 05:50 am SW 1.9 5.1----29.81- 68.2-----
2024-07-14 05:40 am S 1.9 4.1----29.81- 66.9-----
2024-07-14 05:30 am S 1.0 1.9----29.82- 66.2-----
2024-07-14 05:20 am- 0.0 1.9----29.82- 65.7-----
2024-07-14 05:10 am- 0.0 1.9----29.82- 65.5-----
2024-07-14 05:00 am- 0.0 1.9----29.83-0.06 66.4-----
2024-07-14 04:50 am- 0.0 4.1----29.82- 67.6-----
2024-07-14 04:40 am S 1.9 4.1----29.82- 67.1-----
2024-07-14 04:30 amWSW 1.9 1.9----29.83- 65.7-----
2024-07-14 04:20 am S 1.9 1.9----29.82- 67.3-----
2024-07-14 04:10 am S 1.0 1.9----29.82- 67.5-----
2024-07-14 04:00 amSSE 1.0 1.9----29.82-0.09 66.4-----
2024-07-14 03:50 am- 0.0 1.9----29.83- 66.4-----
2024-07-14 03:40 am SW 1.0 1.9----29.84- 67.3-----
2024-07-14 03:30 am- 0.0 1.9----29.84- 68.2-----
2024-07-14 03:20 am W 1.9 4.1----29.85- 68.7-----
2024-07-14 03:10 am W 1.9 2.9----29.86- 67.8-----
2024-07-14 03:00 am W 1.9 4.1----29.86-0.06 69.8-----
2024-07-14 02:50 amSSW 1.0 1.9----29.86- 70.0-----
2024-07-14 02:40 am W 1.9 2.9----29.88- 69.8-----
2024-07-14 02:30 am W 1.9 2.9----29.88- 70.0-----
2024-07-14 02:20 am W 1.0 4.1----29.88- 71.1-----
2024-07-14 02:10 am SW 1.9 2.9----29.88- 71.2-----
2024-07-14 02:00 am SW 1.9 5.1----29.89-0.03 71.8-----
2024-07-14 01:50 am SW 1.9 4.1----29.89- 71.4-----
2024-07-14 01:40 am W 1.0 2.9----29.90- 71.1-----
2024-07-14 01:30 amWSW 2.9 4.1----29.90- 72.1-----
2024-07-14 01:20 amWSW 1.9 5.1----29.90- 72.3-----
2024-07-14 01:10 amWSW 2.9 6.0----29.90- 72.5-----
2024-07-14 01:00 am W 2.9 5.1----29.91+0.00 72.5-----
2024-07-14 12:50 am W 2.9 6.0----29.92- 73.0-----
2024-07-14 12:40 am W 4.1 6.0----29.92- 72.9-----
2024-07-14 12:30 am W 2.9 5.1----29.92- 72.0-----
2024-07-14 12:20 am W 1.9 4.1----29.92- 72.3-----
2024-07-14 12:10 am W 2.9 4.1----29.92- 72.7-----
2024-07-14 12:00 am W 2.9 4.1----29.92+0.00 72.7-----
2024-07-13 11:50 pmWSW 2.9 4.1----29.92- 72.9-----
2024-07-13 11:40 pmWSW 4.1 5.1----29.93- 73.2-----
2024-07-13 11:30 pmWSW 2.9 6.0----29.92- 73.6-----
2024-07-13 11:20 pm W 4.1 5.1----29.92- 73.0-----
2024-07-13 11:10 pm W 2.9 4.1----29.92- 73.0-----
2024-07-13 11:00 pm W 1.9 2.9----29.92-0.01 74.1-----
2024-07-13 10:50 pmWSW 1.9 4.1----29.92- 75.6-----
2024-07-13 10:40 pm W 1.9 5.1----29.91- 75.9-----
2024-07-13 10:30 pmWSW 2.9 8.0----29.91- 76.8-----
2024-07-13 10:20 pm SW 2.9 7.0----29.91- 77.5-----
2024-07-13 10:10 pm SW 5.1 8.0----29.91- 78.1-----
2024-07-13 10:00 pm SW 4.1 7.0----29.91+0.00 78.3-----
2024-07-13 09:50 pm SW 2.9 6.0----29.91- 78.3-----
2024-07-13 09:40 pm SW 4.1 7.0----29.91- 78.4-----
2024-07-13 09:30 pmSSW 2.9 8.0----29.91- 79.0-----
2024-07-13 09:20 pmSSW 2.9 9.9----29.92- 79.5-----
2024-07-13 09:10 pmSSW 4.1 8.0----29.92- 79.5-----
2024-07-13 09:00 pmSSW 2.9 6.0----29.92+0.00 79.7-----
2024-07-13 08:50 pmSSW 2.9 8.0----29.92- 80.4-----
2024-07-13 08:40 pm SW 2.9 8.0----29.92- 80.6-----
2024-07-13 08:30 pmSSW 5.1 8.0----29.93- 81.1-----
2024-07-13 08:20 pmSSW 4.1 8.9----29.93- 81.7-----
2024-07-13 08:10 pmSSW 2.9 8.0----29.93- 81.5-----
2024-07-13 08:00 pmSSW 4.1 7.0----29.93+0.00 82.0-----
2024-07-13 07:50 pm S 1.9 6.0----29.92- 81.1-----
2024-07-13 07:40 pm SW 2.9 7.0----29.92- 83.7-----
2024-07-13 07:30 pmSSW 5.1 8.0----29.92- 83.7-----
2024-07-13 07:20 pm SW 6.0 8.9----29.92- 83.8-----
2024-07-13 07:10 pm SW 4.1 8.9----29.91- 84.9-----
2024-07-13 07:00 pm SW 2.9 9.9----29.91-0.05 85.6-----
2024-07-13 06:50 pm SW 6.0 8.9----29.91- 85.3-----
2024-07-13 06:40 pm SW 7.0 11.1----29.91- 85.3-----
2024-07-13 06:30 pmWSW 7.0 13.0----29.91- 85.6-----
2024-07-13 06:20 pmWSW 5.1 9.9----29.91- 85.8-----
2024-07-13 06:10 pmWSW 7.0 12.0----29.91- 86.4-----
2024-07-13 06:00 pmSSW 4.1 14.0----29.92-0.06 86.4-----
2024-07-13 05:50 pmSSW 5.1 9.9----29.92- 85.8-----
2024-07-13 05:40 pm S 5.1 7.0----29.92- 80.1-----
2024-07-13 05:30 pm S 5.1 7.0----29.92- 77.9-----
2024-07-13 05:20 pmSSE 4.1 6.0----29.93- 75.7-----
2024-07-13 05:10 pmSSE 5.1 8.9----29.93- 75.9-----
2024-07-13 05:00 pm S 6.0 11.1----29.93-0.06 81.0-----
2024-07-13 04:50 pm S 6.0 9.9----29.94- 84.4-----
2024-07-13 04:40 pm S 5.1 12.0----29.95- 85.8-----
2024-07-13 04:30 pmSSW 2.9 11.1----29.95- 87.1-----
2024-07-13 04:20 pmSSW 5.1 9.9----29.96- 87.4-----
2024-07-13 04:10 pmSSW 4.1 8.9----29.96- 87.6-----
2024-07-13 04:00 pm S 5.1 12.0----29.96-0.05 87.6-----
2024-07-13 03:50 pmSSW 4.1 9.9----29.96- 88.5-----